Weather History for KGRR - June, 2013

Change the Weather History Date:

Monday, June 24, 2013

  Actual Average Record
Temperature  
Mean Temperature 78 °F 71 °F  
Max Temperature 87 °F 81 °F 96 °F (1901)
Min Temperature 69 °F 60 °F 41 °F (1961)
Degree Days  
Heating Degree Days 0 1  
Month to date heating degree days 40 43  
Since 1 June heating degree days 40 43  
Since 1 July heating degree days 6311 6483  
Cooling Degree Days 13 6  
Month to date cooling degree days 99 105  
Year to date cooling degree days 181 152  
Since 1 June cooling degree days 99 105  
Growing Degree Days 28 (Base 50)    
Moisture  
Dew Point 65 °F    
Average Humidity 65    
Maximum Humidity 84    
Minimum Humidity 45    
Precipitation  
Precipitation T in 0.13 in 2.88 in (1994)
Month to date precipitation 3.77 3.04  
Year to date precipitation 26.46 16.62  
Snow  
Snow 0.00 in 0.00 in 0.00 in (2007)
Month to date snowfall 0.0 0.0  
Since 1 June snowfall 0.0 0.0  
Since 1 July snowfall 66.0 74.9  
Snow Depth 0.00 in    
Sea Level Pressure  
Sea Level Pressure 29.99 in    
Wind  
Wind Speed 10 mph (SW)    
Max Wind Speed 21 mph    
Max Gust Speed 45 mph    
Visibility 10 miles    
Events Rain    
T = Trace of Precipitation, MM = Missing Value Source: NWS Daily Summary

Daily Weather History Graph

Daily Weather History Graph

Search for Another Location

Airport or City:

Trip Planner

Search our weather history database for the weather conditions in past years. The results will help you decide how hot, cold, wet, or windy it might be!

Date:

Astronomy

Jun. 24, 2013 Rise Set
Actual Time 6:04 AM EDT 9:24 PM EDT
Civil Twilight 5:29 AM EDT 10:00 PM EDT
Nautical Twilight 4:43 AM EDT 10:45 PM EDT
Astronomical Twilight 3:46 AM EDT 11:42 PM EDT
Moon 10:23 PM EDT (6/24) 7:33 AM EDT (6/24)
Length of Visible Light 16h 31m
Length of Day
15h 20m
Full, 98% of the Moon is Illuminated
Jun 24
Full
Jun 30
Last Quarter
Jul 8
New
Jul 15
First Quarter
Jul 22
Full

Hourly Weather History & Observations

Time (EDT) Temp. Heat Index Dew Point Humidity Pressure Visibility Wind Dir Wind Speed Gust Speed Precip Events Conditions
12:53 AM 77.0 °F - 66.9 °F 71% 30.01 in 10.0 mi SW 9.2 mph - N/A   Clear
1:53 AM 75.9 °F - 66.0 °F 71% 30.00 in 10.0 mi SW 10.4 mph - N/A   Clear
2:53 AM 73.9 °F - 64.9 °F 73% 30.00 in 10.0 mi SSW 10.4 mph - N/A   Clear
3:53 AM 71.1 °F - 64.9 °F 81% 30.00 in 10.0 mi South 6.9 mph - N/A   Clear
4:53 AM 70.0 °F - 64.0 °F 81% 30.00 in 10.0 mi SSW 4.6 mph - N/A   Clear
5:53 AM 70.0 °F - 64.0 °F 81% 30.00 in 10.0 mi SSE 6.9 mph - N/A   Mostly Cloudy
6:53 AM 69.1 °F - 64.9 °F 87% 30.01 in 10.0 mi South 3.5 mph - N/A   Scattered Clouds
7:53 AM 72.0 °F - 66.0 °F 81% 30.02 in 10.0 mi SSW 11.5 mph - N/A   Scattered Clouds
8:45 AM 73.4 °F - 66.2 °F 78% 30.05 in 9.0 mi SSW 13.8 mph 23.0 mph N/A   Overcast
8:53 AM 75.0 °F - 66.9 °F 76% 30.04 in 9.0 mi SSW 8.1 mph - N/A   Mostly Cloudy
9:38 AM 77.0 °F - 68.0 °F 74% 30.05 in 8.0 mi SW 12.7 mph - N/A   Mostly Cloudy
9:53 AM 77.0 °F - 68.0 °F 74% 30.04 in 8.0 mi SSW 12.7 mph - N/A   Mostly Cloudy
10:53 AM 80.1 °F 82.7 °F 68.0 °F 67% 30.04 in 10.0 mi SW 10.4 mph - N/A   Mostly Cloudy
11:53 AM 80.1 °F 82.1 °F 66.0 °F 62% 30.05 in 10.0 mi WSW 18.4 mph 24.2 mph N/A   Mostly Cloudy
12:53 PM 82.9 °F 84.6 °F 64.9 °F 54% 30.04 in 10.0 mi West 16.1 mph 25.3 mph N/A   Mostly Cloudy
1:53 PM 84.0 °F 85.8 °F 64.9 °F 53% 30.02 in 10.0 mi WSW 11.5 mph - N/A   Mostly Cloudy
2:53 PM 84.9 °F 86.1 °F 64.0 °F 49% 29.97 in 10.0 mi Variable 6.9 mph - N/A   Scattered Clouds
3:53 PM 86.0 °F 86.8 °F 63.0 °F 46% 29.96 in 10.0 mi SW 8.1 mph - N/A   Scattered Clouds
4:53 PM 86.0 °F 87.6 °F 64.9 °F 49% 29.95 in 10.0 mi WSW 17.3 mph 20.7 mph N/A   Mostly Cloudy
5:53 PM 86.0 °F 87.6 °F 64.9 °F 49% 29.94 in 10.0 mi West 10.4 mph - N/A   Scattered Clouds
6:53 PM 84.9 °F 86.6 °F 64.9 °F 51% 29.95 in 10.0 mi WNW 10.4 mph - N/A   Mostly Cloudy
7:53 PM 82.0 °F 83.1 °F 63.0 °F 52% 29.94 in 10.0 mi West 8.1 mph - N/A   Mostly Cloudy
8:53 PM 79.0 °F - 63.0 °F 58% 29.92 in 10.0 mi SW 5.8 mph - N/A   Mostly Cloudy
9:53 PM 73.0 °F - 68.0 °F 84% 29.88 in 10.0 mi East 8.1 mph - N/A   Scattered Clouds
10:53 PM 72.0 °F - 66.9 °F 84% 29.89 in 10.0 mi SE 4.6 mph - N/A   Mostly Cloudy
11:53 PM 73.9 °F - 62.1 °F 66% 29.94 in 10.0 mi WSW 12.7 mph - 0.00 in Rain Light Rain